When you browse on this site, cookies collect data to enhance your experience and personalize the content and advertising you see.
Visit our Privacy Policy to learn more. By continuing to use the site, you agree to this use of cookies and data.
  • In Latvia
  • List of Countries
  • For 7 days
  • Water Temperature
  • Satellite Maps
  • Weather Map
  • Weather Widgets
  • user-avatar
    Login

    Hourly Weather Perth

    Today, 20 April, Saturday

    Time Temperature Precipitation Wind Pressure Humidity
    00:00 +12°C° 0.1 mm 4 mps 765 mmHg 67%
    01:00 +12°C° 0.1 mm 4 mps 765 mmHg 67%
    02:00 +12°C° 0.1 mm 4 mps 765 mmHg 67%
    03:00 +12°C° 0.1 mm 4 mps 766 mmHg 66%
    04:00 +11°C° 0.1 mm 3 mps 766 mmHg 66%
    05:00 +11°C° 0.1 mm 3 mps 766 mmHg 66%
    06:00 +11°C° 0 mm 3 mps 767 mmHg 64%
    07:00 +11°C° 0 mm 3 mps 767 mmHg 62%
    08:00 +11°C° 0 mm 3 mps 768 mmHg 60%
    09:00 +13°C° 0 mm 3 mps 768 mmHg 54%
    10:00 +14°C° 0 mm 3 mps 768 mmHg 47%
    11:00 +17°C° 0 mm 3 mps 768 mmHg 41%
    12:00 +17°C° 0 mm 3 mps 768 mmHg 41%
    13:00 +18°C° 0 mm 4 mps 767 mmHg 40%
    14:00 +19°C° 0 mm 4 mps 767 mmHg 40%
    15:00 +18°C° 0 mm 4 mps 767 mmHg 42%
    16:00 +18°C° 0 mm 4 mps 767 mmHg 45%
    17:00 +17°C° 0 mm 4 mps 767 mmHg 47%
    18:00 +17°C° 0 mm 3 mps 767 mmHg 52%
    19:00 +16°C° 0 mm 3 mps 768 mmHg 56%
    20:00 +14°C° 0 mm 3 mps 769 mmHg 61%
    21:00 +13°C° 0 mm 3 mps 769 mmHg 61%
    22:00 +13°C° 0 mm 3 mps 769 mmHg 62%
    23:00 +12°C° 0 mm 3 mps 769 mmHg 62%

    Tomorrow, 21 April, Sunday

    Time Temperature Precipitation Wind Pressure Humidity
    00:00 +12°C° 0 mm 3 mps 769 mmHg 62%
    01:00 +12°C° 0 mm 3 mps 769 mmHg 62%
    02:00 +11°C° 0 mm 3 mps 769 mmHg 62%
    03:00 +11°C° 0 mm 3 mps 769 mmHg 63%
    04:00 +11°C° 0 mm 3 mps 769 mmHg 64%
    05:00 +11°C° 0 mm 3 mps 769 mmHg 66%
    06:00 +11°C° 0 mm 3 mps 769 mmHg 63%
    07:00 +12°C° 0 mm 3 mps 769 mmHg 61%
    08:00 +12°C° 0 mm 3 mps 769 mmHg 59%
    09:00 +14°C° 0 mm 3 mps 769 mmHg 52%
    10:00 +17°C° 0 mm 3 mps 769 mmHg 44%
    11:00 +19°C° 0 mm 2 mps 769 mmHg 37%
    12:00 +21°C° 0 mm 2 mps 768 mmHg 34%
    13:00 +23°C° 0 mm 2 mps 767 mmHg 32%
    14:00 +24°C° 0 mm 2 mps 767 mmHg 29%
    15:00 +23°C° 0 mm 2 mps 767 mmHg 31%
    16:00 +23°C° 0 mm 2 mps 766 mmHg 33%
    17:00 +23°C° 0 mm 2 mps 766 mmHg 35%
    18:00 +20°C° 0 mm 2 mps 766 mmHg 39%
    19:00 +19°C° 0 mm 2 mps 767 mmHg 42%
    20:00 +17°C° 0 mm 2 mps 767 mmHg 46%
    21:00 +17°C° 0 mm 2 mps 767 mmHg 45%
    22:00 +17°C° 0 mm 2 mps 767 mmHg 44%
    23:00 +16°C° 0 mm 2 mps 767 mmHg 43%

    Day after tomorrow, 22 April, Monday

    Time Temperature Precipitation Wind Pressure Humidity
    00:00 +16°C° 0 mm 2 mps 767 mmHg 43%
    01:00 +16°C° 0 mm 3 mps 766 mmHg 44%
    02:00 +16°C° 0 mm 3 mps 766 mmHg 44%
    03:00 +16°C° 0 mm 3 mps 766 mmHg 45%
    04:00 +16°C° 0 mm 3 mps 766 mmHg 46%
    05:00 +16°C° 0 mm 3 mps 766 mmHg 47%
    06:00 +16°C° 0 mm 3 mps 766 mmHg 46%
    07:00 +17°C° 0 mm 3 mps 766 mmHg 45%
    08:00 +17°C° 0 mm 3 mps 766 mmHg 44%
    09:00 +19°C° 0 mm 3 mps 766 mmHg 38%
    10:00 +21°C° 0 mm 3 mps 766 mmHg 33%
    11:00 +24°C° 0 mm 3 mps 766 mmHg 28%
    12:00 +25°C° 0 mm 2 mps 765 mmHg 28%
    13:00 +26°C° 0 mm 2 mps 765 mmHg 27%
    14:00 +27°C° 0 mm 2 mps 764 mmHg 26%
    15:00 +26°C° 0 mm 3 mps 765 mmHg 30%
    16:00 +25°C° 0 mm 3 mps 765 mmHg 34%
    17:00 +24°C° 0 mm 3 mps 765 mmHg 37%
    18:00 +21°C° 0 mm 3 mps 765 mmHg 43%
    19:00 +20°C° 0 mm 3 mps 765 mmHg 49%
    20:00 +18°C° 0 mm 2 mps 766 mmHg 55%
    21:00 +18°C° 0 mm 3 mps 766 mmHg 57%
    22:00 +17°C° 0 mm 3 mps 766 mmHg 59%
    23:00 +17°C° 0 mm 3 mps 767 mmHg 61%

    23 April, Tuesday

    Time Temperature Precipitation Wind Pressure Humidity
    00:00 +17°C° 0 mm 3 mps 767 mmHg 62%
    01:00 +16°C° 0 mm 3 mps 767 mmHg 63%
    02:00 +16°C° 0 mm 3 mps 767 mmHg 65%
    03:00 +16°C° 0 mm 3 mps 767 mmHg 67%
    04:00 +16°C° 0 mm 3 mps 767 mmHg 69%
    05:00 +14°C° 0 mm 3 mps 766 mmHg 71%
    06:00 +16°C° 0 mm 3 mps 767 mmHg 68%
    07:00 +16°C° 0 mm 3 mps 767 mmHg 65%
    08:00 +17°C° 0 mm 3 mps 768 mmHg 62%
    09:00 +19°C° 0 mm 2 mps 768 mmHg 51%
    10:00 +23°C° 0 mm 1 mps 767 mmHg 41%
    11:00 +26°C° 0 mm 1 mps 767 mmHg 30%
    12:00 +27°C° 0 mm 1 mps 767 mmHg 30%
    13:00 +27°C° 0 mm 2 mps 766 mmHg 30%
    14:00 +28°C° 0 mm 2 mps 766 mmHg 29%
    15:00 +27°C° 0 mm 3 mps 766 mmHg 34%
    16:00 +26°C° 0 mm 3 mps 766 mmHg 39%
    17:00 +25°C° 0 mm 4 mps 766 mmHg 43%
    18:00 +22°C° 0 mm 4 mps 766 mmHg 50%
    19:00 +21°C° 0 mm 4 mps 767 mmHg 57%
    20:00 +19°C° 0 mm 4 mps 767 mmHg 64%
    21:00 +19°C° 0 mm 4 mps 768 mmHg 64%
    22:00 +18°C° 0 mm 3 mps 768 mmHg 64%
    23:00 +18°C° 0 mm 3 mps 768 mmHg 64%

    24 April, Wednesday

    Time Temperature Precipitation Wind Pressure Humidity
    00:00 +18°C° 0 mm 3 mps 768 mmHg 59%
    01:00 +18°C° 0 mm 3 mps 768 mmHg 54%
    02:00 +18°C° 0 mm 3 mps 768 mmHg 49%
    03:00 +18°C° 0 mm 3 mps 768 mmHg 51%
    04:00 +18°C° 0 mm 4 mps 768 mmHg 52%
    05:00 +17°C° 0 mm 4 mps 768 mmHg 54%
    06:00 +18°C° 0 mm 4 mps 768 mmHg 53%
    07:00 +18°C° 0 mm 4 mps 768 mmHg 53%
    08:00 +19°C° 0 mm 4 mps 769 mmHg 52%
    09:00 +21°C° 0 mm 4 mps 769 mmHg 46%
    10:00 +24°C° 0 mm 3 mps 769 mmHg 40%
    11:00 +27°C° 0 mm 3 mps 768 mmHg 34%
    12:00 +28°C° 0 mm 2 mps 768 mmHg 31%
    13:00 +29°C° 0 mm 2 mps 767 mmHg 28%
    14:00 +30°C° 0 mm 1 mps 767 mmHg 26%
    15:00 +29°C° 0 mm 2 mps 767 mmHg 29%
    16:00 +28°C° 0 mm 2 mps 767 mmHg 32%
    17:00 +27°C° 0 mm 2 mps 767 mmHg 35%
    18:00 +26°C° 0 mm 2 mps 767 mmHg 38%
    19:00 +24°C° 0 mm 2 mps 768 mmHg 41%
    20:00 +23°C° 0 mm 2 mps 768 mmHg 44%
    21:00 +21°C° 0 mm 3 mps 768 mmHg 42%
    22:00 +21°C° 0 mm 3 mps 768 mmHg 40%
    23:00 +21°C° 0 mm 3 mps 768 mmHg 38%

    25 April, Thursday

    Time Temperature Precipitation Wind Pressure Humidity
    00:00 +21°C° 0 mm 3 mps 768 mmHg 39%
    01:00 +21°C° 0 mm 4 mps 768 mmHg 41%
    02:00 +20°C° 0 mm 4 mps 768 mmHg 42%
    03:00 +20°C° 0 mm 4 mps 768 mmHg 43%
    04:00 +19°C° 0 mm 4 mps 768 mmHg 45%
    05:00 +19°C° 0 mm 4 mps 768 mmHg 47%
    06:00 +19°C° 0 mm 4 mps 768 mmHg 46%
    07:00 +20°C° 0 mm 4 mps 769 mmHg 45%
    08:00 +20°C° 0 mm 4 mps 769 mmHg 44%
    09:00 +22°C° 0 mm 4 mps 769 mmHg 39%
    10:00 +26°C° 0 mm 4 mps 769 mmHg 35%
    11:00 +28°C° 0 mm 4 mps 768 mmHg 31%
    12:00 +29°C° 0 mm 3 mps 768 mmHg 30%
    13:00 +30°C° 0 mm 3 mps 767 mmHg 28%
    14:00 +30°C° 0 mm 3 mps 767 mmHg 27%
    15:00 +30°C° 0 mm 2 mps 767 mmHg 28%
    16:00 +29°C° 0 mm 2 mps 767 mmHg 29%
    17:00 +29°C° 0 mm 2 mps 767 mmHg 29%
    18:00 +27°C° 0 mm 2 mps 767 mmHg 32%
    19:00 +25°C° 0 mm 2 mps 767 mmHg 35%
    20:00 +24°C° 0 mm 2 mps 768 mmHg 37%
    21:00 +22°C° 0 mm 3 mps 768 mmHg 37%
    22:00 +22°C° 0 mm 3 mps 768 mmHg 37%
    23:00 +22°C° 0 mm 3 mps 768 mmHg 37%
    Show more